North Pole, Alaska, United States (99705)
Lat: 64.75N, Lon: 147.35W
Wx Zone: AKZ222
Local Info
Past Weather Observations for Saturday, February 6, 2016

NOTE: This archive is for the closest National Weather Service station to North Pole. Information may differ from the station used for current weather conditions.

Click here for Long-term Archive

Time Weather Temperature Dewpoint Humidity Pressure Winds Precip Visibility
23:58
Clear
-4°F / -20°C -8°F / -22°C 84% 29.98 in
(1015 mb)
Calm - 10SM
22:58
Clear
-4°F / -20°C -8°F / -22°C 84% 29.98 in
(1015 mb)
Calm - 10SM
21:58
Clear
-2°F / -19°C -6°F / -21°C 84% 29.95 in
(1014 mb)
Calm - 10SM
20:58
Clear
-2°F / -19°C -6°F / -21°C 84% 29.95 in
(1014 mb)
Calm - 10SM
19:58
Clear
3°F / -16°C °F / -18°C 85% 29.92 in
(1013 mb)
Calm - 10SM
18:58
Partly Cloudy
°F / -18°C -4°F / -20°C 84% 29.89 in
(1012 mb)
Calm - 10SM
17:58
Clear
1°F / -17°C -2°F / -19°C 85% 29.89 in
(1012 mb)
Calm - 10SM
16:58
Clear
5°F / -15°C 3°F / -16°C 92% 29.86 in
(1011 mb)
N 1.2 mph
(N 2 kph)
- 8SM
15:58
Clear
7°F / -14°C 5°F / -15°C 92% 29.83 in
(1010 mb)
Calm - 10SM
14:58
Clear
9°F / -13°C 7°F / -14°C 92% 29.83 in
(1010 mb)
Calm - 10SM
13:58
Clear
9°F / -13°C 7°F / -14°C 92% 29.83 in
(1010 mb)
Calm - 9SM
12:58
Clear
9°F / -13°C 7°F / -14°C 92% 29.8 in
(1009 mb)
Calm - 10SM
11:58
Clear
10°F / -12°C 9°F / -13°C 92% 29.8 in
(1009 mb)
Calm - 10SM
10:58
Overcast
12°F / -11°C 9°F / -13°C 85% 29.77 in
(1008 mb)
Calm - 10SM
09:58
Overcast
10°F / -12°C 9°F / -13°C 92% 29.74 in
(1007 mb)
Calm 0.00 in
(0.00 mm)
7SM
09:37
Overcast
10°F / -12°C 7°F / -14°C 85% 29.74 in
(1007 mb)
Calm - 9SM
09:23
Overcast
Light Snow
10°F / -12°C 7°F / -14°C 85% 29.71 in
(1006 mb)
Calm - 4SM
09:18
Overcast
Light Snow
10°F / -12°C 7°F / -14°C 85% 29.71 in
(1006 mb)
Calm - 2 1/4SM
09:13
Overcast
Light Snow
10°F / -12°C 7°F / -14°C 85% 29.71 in
(1006 mb)
Calm - 2SM
09:08
Overcast
Light Snow
10°F / -12°C 7°F / -14°C 85% 29.71 in
(1006 mb)
Calm - 2 3/4SM
08:58
Overcast
Light Snow
10°F / -12°C 7°F / -14°C 85% 29.71 in
(1006 mb)
Calm 0.00 in
(0.00 mm)
9SM
08:56
Overcast
Light Snow
10°F / -12°C 7°F / -14°C 85% 29.71 in
(1006 mb)
Calm - 10SM
08:47
Overcast
10°F / -12°C 7°F / -14°C 85% 29.71 in
(1006 mb)
Calm - 10SM
08:23
Overcast
Light Snow
9°F / -13°C 7°F / -14°C 92% 29.68 in
(1005 mb)
Calm - 6SM
08:18
Overcast
Light Snow
9°F / -13°C 7°F / -14°C 92% 29.68 in
(1005 mb)
Calm - 4SM
08:13
Overcast
Light Snow
9°F / -13°C 7°F / -14°C 92% 29.68 in
(1005 mb)
Calm - 2 3/4SM
08:08
Overcast
Light Snow
9°F / -13°C 7°F / -14°C 92% 29.68 in
(1005 mb)
Calm - 1 7/8SM
07:58
Overcast
Light Snow
9°F / -13°C 5°F / -15°C 85% 29.68 in
(1005 mb)
Calm 0.00 in
(0.00 mm)
1 1/4SM
07:53
Overcast
Light Snow
9°F / -13°C 5°F / -15°C 85% 29.68 in
(1005 mb)
Calm - 1 1/2SM
07:48
Overcast
Light Snow
9°F / -13°C 5°F / -15°C 85% 29.68 in
(1005 mb)
Calm - 1 7/8SM
07:03
Overcast
Light Snow
9°F / -13°C 5°F / -15°C 85% 29.65 in
(1004 mb)
Calm - 10SM
06:58
Overcast
9°F / -13°C 5°F / -15°C 85% 29.65 in
(1004 mb)
Calm 0.00 in
(0.00 mm)
10SM
06:51
Overcast
9°F / -13°C 5°F / -15°C 85% 29.65 in
(1004 mb)
Calm - 9SM
06:37
Overcast
Light Snow
9°F / -13°C 3°F / -16°C 78% 29.65 in
(1004 mb)
Calm - 9SM
06:20
Overcast
9°F / -13°C 3°F / -16°C 78% 29.65 in
(1004 mb)
Calm - 9SM
05:58
Overcast
Light Snow
7°F / -14°C 3°F / -16°C 85% 29.62 in
(1003 mb)
Calm 0.00 in
(0.00 mm)
8SM
05:50
Overcast
Light Snow
7°F / -14°C 3°F / -16°C 85% 29.62 in
(1003 mb)
Calm - 10SM
04:58
Overcast
7°F / -14°C 3°F / -16°C 85% 29.62 in
(1003 mb)
Calm - 10SM
03:58
Overcast
3°F / -16°C °F / -18°C 85% 29.59 in
(1002 mb)
Calm - 10SM
02:58
Overcast
3°F / -16°C 1°F / -17°C 92% 29.56 in
(1001 mb)
Calm - 10SM
01:58
Overcast
7°F / -14°C 3°F / -16°C 85% 29.53 in
(1000 mb)
Calm - 10SM
00:58
Overcast
7°F / -14°C 3°F / -16°C 85% 29.5 in
(999 mb)
Calm - 10SM
Time Weather Temperature Dewpoint Humidity Pressure Winds Precip Visibility


Weather for websites

WeatherForYou.com, LLC is not responsible for any damages or problems caused by this service. Current weather conditions are obtained from the closest station including government and personal stations which may have varying degrees of accuracy. Weather forecasts are derived from the NOAA NDFD. Like all things, this site belongs to Jesus Christ... He just trusts us to maintain it. If you have any questions or comments email webmaster@weatherforyou.com

Copyright © 2016, WeatherForYou.com LLC. All rights reserved.